User: anonymous   Login
Location: Unspecified
(0.0000°N, 0.0000°E)
Time: 17:09:54
(UTC+02:00)
Language:

SJ-6B - Orbit

View from above orbital plane
View from above orbital plane
View from above satellite
View from above satellite

Ground track
Ground track

The orbit data is extracted from the following two-line orbital elements,

1 28415U 04035C   17086.63719101 +.00000784 +00000-0 +56488-4 0  9996
2 28415 097.7543 115.3438 0053358 039.3637 321.1449 15.06101808686304
Epoch (UTC): 27 March 2017 15:17:33
Eccentricity: 0.0053358
inclination: 97.7543°
perigee height: 511 km
apogee height: 585 km
right ascension of ascending node: 115.3438°
argument of perigee: 39.3637°
revolutions per day: 15.06101808
mean anomaly at epoch: 321.1449°
orbit number at epoch: 68630

The dashed part of the orbit path shows where the satellite is in the earth's shadow,  

DLR